Theta_e
299 300 300 300 301 300 298 298 299 299 299 298 297 296 295 293 292 291 293 293 294 294 294 293 294 293 292 290 291 292 292 292 293 293 294 295 295 295 299 302 301 304 306
299 300 300 301 300 299 297 297 299 299 298 298 297 296 295 294 294 293 294 295 295 295 294 294 294 293 291 290 290 290 291 291 291 291 291 292 293 297 298 299 300 306 307
299 300 300 300 300 296 295 296 299 299 298 297 297 296 295 294 293 292 293 293 294 295 294 294 292 291 290 290 290 290 290 291 290 290 291 291 292 293 296 298 300 302 305
299 299 300 300 299 295 295 295 297 299 298 298 297 296 295 294 293 293 292 292 293 294 294 293 293 291 290 290 290 290 290 291 290 290 291 291 293 295 296 299 301 302 304
299 299 300 300 298 295 294 293 294 297 298 298 297 297 297 296 296 293 294 293 293 293 294 296 294 293 291 290 290 290 290 290 290 291 291 293 295 295 298 300 301 302 304
299 299 300 299 297 294 294 292 293 293 294 295 296 297 297 296 296 295 295 294 294 294 295 295 296 296 294 292 290 290 290 290 291 290 291 292 295 295 298 298 300 301 302
299 299 299 299 296 294 294 292 293 293 292 291 290 294 297 297 297 297 297 295 295 295 296 296 296 296 295 294 292 291 290 290 291 291 292 293 294 295 296 298 299 300 301
299 299 299 299 297 293 294 293 292 293 293 291 290 289 290 292 296 297 297 296 295 295 295 296 296 295 295 295 294 292 292 292 292 293 293 294 295 296 296 298 299 299 299
299 299 299 298 297 293 294 293 292 292 293 291 290 289 289 289 289 289 293 296 296 296 295 296 296 296 295 295 295 295 294 294 294 295 296 296 296 296 297 299 299 299 297
299 298 298 298 297 294 293 293 292 292 292 292 291 289 288 288 288 288 288 288 290 294 296 297 297 296 296 295 294 293 292 293 293 293 295 296 297 298 299 299 299 297 298
298 298 298 298 297 294 293 293 293 292 292 292 291 291 289 288 288 288 288 287 287 287 288 292 296 296 295 294 294 294 293 291 291 292 294 295 295 295 295 295 295 294 295
298 298 298 298 298 296 293 292 293 292 291 291 291 291 290 289 288 287 287 287 286 286 287 287 289 292 295 295 295 294 293 292 292 292 292 293 293 293 294 294 294 293 294
297 298 298 298 297 297 294 292 292 292 291 291 291 291 291 291 291 290 288 287 286 286 286 285 286 287 289 292 295 295 294 292 292 292 292 292 291 291 291 292 292 293 294
297 297 297 297 297 297 295 292 291 292 292 291 291 291 290 290 290 290 290 289 288 286 286 285 285 285 286 287 289 292 293 293 293 291 291 291 290 290 290 290 291 292 293
297 296 296 296 296 296 296 294 293 291 291 291 291 290 290 290 289 290 290 289 289 288 287 285 284 284 284 285 285 286 288 290 291 291 291 290 289 289 289 289 290 290 291
298 297 296 296 296 296 296 295 293 292 291 290 290 290 290 289 289 289 289 289 288 288 287 287 285 284 284 284 284 283 283 284 286 288 289 289 289 289 287 284 286 288 289
298 298 297 296 295 295 295 295 295 293 292 290 290 290 290 290 290 290 290 290 289 288 288 287 287 286 285 283 283 283 282 282 282 282 283 285 285 285 283 282 282 285 286
298 297 297 296 295 295 295 295 295 295 293 292 291 290 289 290 291 291 291 290 290 290 289 287 286 286 285 284 283 282 281 281 281 282 281 281 281 281 281 281 281 281 281
294 296 296 296 295 294 294 294 294 294 293 292 290 289 290 290 291 291 291 291 290 290 289 289 288 286 285 285 285 284 283 282 281 280 280 280 280 279 279 279 279 280 280
292 293 294 294 294 293 293 293 293 293 293 292 291 291 289 289 291 291 291 290 290 289 288 287 286 286 286 285 284 284 284 283 282 281 281 280 280 280 280 279 279 279 278
291 293 293 292 292 292 291 291 292 292 293 293 292 290 289 289 290 290 290 289 289 289 288 288 287 287 286 285 285 285 285 284 283 283 283 283 282 281 279 279 279 278 278
292 292 291 290 290 290 289 289 289 290 291 292 291 289 287 288 288 289 289 289 288 287 287 287 287 286 285 285 285 284 284 284 283 283 283 283 282 282 281 281 281 281 280
289 289 289 289 288 288 288 288 288 289 290 290 290 287 286 287 287 287 287 287 287 286 286 286 285 285 284 284 284 283 283 283 283 283 282 282 282 281 281 280 280 280 280
286 285 285 285 284 284 284 285 285 286 287 288 287 286 285 285 286 286 286 285 284 283 283 283 283 283 282 282 282 282 282 282 282 282 281 281 281 280 280 279 279 278 278
284 284 284 284 284 284 284 285 285 285 285 285 284 284 284 284 284 284 284 284 283 281 281 282 282 281 281 280 280 280 280 280 280 280 280 279 279 278 278 277 277 276 276
282 283 283 283 284 284 284 283 283 282 282 282 282 282 282 282 282 282 281 281 281 281 281 280 280 279 279 278 278 278 278 278 278 277 277 277 277 276 276 276 275 275 274
Wind_Speed
12 10 8 9 11 12 14 16 20 23 24 23 19 18 17 17 16 16 17 18 19 22 23 26 27 27 30 29 29 30 32 32 39 36 27 23 29 35 36 33 31 27 24
12 10 9 9 10 11 12 15 18 21 23 23 20 19 18 17 16 15 17 17 20 22 22 24 26 26 29 28 29 31 30 32 35 39 36 36 35 24 21 36 33 19 20
13 11 10 10 10 9 10 12 15 19 20 21 21 21 18 17 16 16 17 19 20 20 20 21 21 23 26 25 26 24 25 26 28 33 37 34 32 30 31 27 27 26 26
14 12 10 11 10 8 10 10 13 15 17 19 20 20 19 18 17 20 20 20 19 18 18 17 17 18 18 19 21 22 27 28 27 32 32 32 29 22 27 24 25 22 24
15 14 12 13 9 8 9 8 11 13 16 19 20 21 20 20 20 21 21 21 20 15 16 17 19 19 17 17 20 23 26 25 23 28 26 25 22 25 20 12 17 20 21
17 15 14 14 10 9 9 6 10 12 14 16 18 20 20 21 22 21 22 22 20 16 14 14 16 17 19 19 18 20 22 25 26 23 24 25 20 19 19 18 16 17 16
19 17 15 15 11 10 10 5 8 11 11 13 15 18 21 22 23 22 23 21 20 15 15 16 16 16 16 17 15 17 19 20 22 24 26 26 26 22 20 17 18 17 15
20 19 18 17 13 12 10 7 6 9 11 12 14 16 17 18 20 20 23 22 19 17 15 15 17 17 15 13 13 12 13 15 19 22 24 27 25 19 19 16 18 16 15
22 20 19 18 15 14 11 8 6 8 9 10 11 12 13 15 16 18 19 20 21 20 19 16 15 16 14 11 9 9 11 13 16 17 18 19 18 18 17 19 19 16 15
22 19 19 19 17 15 14 11 8 8 8 9 11 12 13 14 15 16 17 18 19 21 21 23 21 19 16 15 12 10 10 9 12 13 14 14 15 15 16 17 18 15 19
19 20 22 21 19 17 17 13 11 9 9 8 9 11 12 13 13 15 16 17 18 20 20 22 23 24 20 17 14 11 10 11 10 7 7 7 6 7 9 10 10 12 20
22 24 23 21 21 20 18 17 14 12 11 9 9 10 11 12 11 12 13 14 16 17 19 21 21 21 21 19 15 15 14 12 10 8 5 5 5 5 4 3 4 7 11
25 26 25 23 23 23 22 21 19 15 13 12 10 11 12 11 11 11 11 12 13 15 16 18 19 19 18 18 19 19 16 14 11 8 8 8 8 9 8 8 9 10 9
28 29 28 28 26 26 25 24 22 20 16 15 14 13 12 12 11 11 12 12 12 13 13 14 15 16 16 16 16 16 16 16 14 12 11 10 11 11 9 9 10 10 9
29 31 32 31 30 28 28 26 24 21 20 18 16 14 14 13 13 12 10 10 11 11 11 12 12 11 11 12 13 13 14 15 14 15 14 13 13 13 12 11 6 5 8
29 32 34 34 33 32 31 29 28 25 23 21 20 17 16 14 14 13 12 10 11 10 10 9 9 9 10 9 9 10 11 10 12 13 13 14 13 12 12 11 11 9 10
30 31 32 34 36 36 35 33 32 28 26 24 22 20 18 16 15 14 13 12 12 12 11 10 9 9 8 8 7 6 6 7 7 9 8 8 8 7 8 9 10 9 10
26 28 31 31 33 36 37 36 34 31 29 26 24 22 19 18 16 15 14 12 12 13 13 12 11 10 9 8 7 6 4 3 2 2 2 2 2 3 3 4 5 5 4
26 27 28 29 30 31 34 36 36 34 31 28 24 24 21 18 18 16 15 13 12 12 12 13 12 12 11 10 9 9 8 7 6 4 3 3 3 2 3 3 3 4 6
22 23 24 25 26 28 29 33 36 36 34 31 28 25 22 21 19 16 16 14 12 10 10 10 10 11 11 11 10 10 10 10 9 9 8 8 8 8 7 7 6 7 8
17 18 19 20 21 23 25 27 31 34 34 32 29 25 22 22 19 17 17 15 13 12 11 11 10 8 9 10 10 10 11 11 11 11 11 11 11 11 11 11 11 11 11
12 13 14 15 15 18 19 20 23 26 29 29 27 24 22 23 21 19 19 18 16 15 14 13 13 11 11 10 9 9 8 9 10 11 12 13 13 14 14 14 13 13 13
9 9 8 8 9 11 12 14 15 17 21 23 23 22 21 22 21 19 19 18 19 19 16 15 14 14 14 14 14 13 13 13 13 13 13 13 13 13 13 14 15 16 15
5 4 3 3 3 4 4 6 7 10 13 16 18 19 19 19 19 19 19 20 19 18 17 17 17 17 17 17 17 17 17 17 16 16 16 16 16 15 15 15 15 15 14
7 6 4 2 2 1 1 2 3 5 8 11 12 14 15 17 18 19 19 19 18 18 18 18 18 19 19 19 18 17 17 18 18 18 17 17 17 16 16 16 15 15 14
10 9 8 7 6 5 3 2 1 3 4 6 7 9 10 11 12 13 13 13 14 14 16 17 18 18 17 16 16 17 17 17 16 16 15 15 15 16 15 15 15 14 13
Wind_Direction
244 254 267 283 297 314 324 333 338 342 343 342 339 341 341 339 338 333 329 322 310 305 301 300 297 292 287 282 276 268 269 273 272 276 278 292 292 284 263 272 293 283 283
236 245 257 274 290 307 325 336 344 346 351 348 348 346 345 343 337 332 325 320 313 307 305 301 298 297 293 285 274 271 269 270 270 287 290 285 278 285 289 264 281 301 293
229 237 249 266 281 305 324 340 346 355 358 355 358 356 352 350 347 339 323 320 313 308 306 300 302 299 290 281 276 274 276 276 277 284 284 291 289 273 277 280 274 287 284
225 233 240 258 273 297 315 341 347 355 4 1 3 6 3 358 352 351 342 333 322 312 306 305 314 311 298 292 283 279 283 277 279 280 291 294 286 288 273 282 274 284 269
224 230 238 252 264 285 306 336 346 347 5 4 8 12 9 6 8 358 357 352 344 326 312 312 313 310 301 290 279 276 273 278 277 286 292 293 287 284 269 302 280 275 261
224 229 235 246 254 275 295 328 342 345 0 5 9 13 17 16 19 11 7 4 1 353 354 347 332 325 315 287 275 274 269 271 275 279 282 288 290 288 294 287 306 277 247
222 227 233 240 246 261 283 308 333 333 347 360 8 13 14 17 21 18 17 11 9 8 357 341 339 335 330 319 282 266 268 266 267 274 278 277 281 291 296 291 297 277 248
222 226 229 235 238 251 268 290 318 325 342 356 7 10 11 13 12 16 21 20 16 10 1 355 348 344 335 325 308 278 273 280 278 270 268 274 277 284 281 282 283 277 245
222 227 229 234 233 245 258 272 290 310 331 349 2 2 1 6 10 16 21 21 23 19 14 5 5 8 1 356 339 301 287 287 291 295 284 272 268 258 260 263 269 263 219
223 227 230 235 234 240 250 259 271 291 312 336 348 349 352 356 1 9 16 20 21 21 19 22 24 21 13 13 10 352 328 318 307 306 305 299 276 259 256 255 270 256 223
223 225 230 236 236 235 246 254 260 272 289 310 328 333 339 344 354 1 8 14 19 21 20 23 22 24 21 20 20 18 5 342 337 334 334 315 286 262 254 259 247 229 208
224 230 235 236 238 238 240 246 247 256 270 286 302 310 320 329 343 354 359 4 10 17 23 27 27 25 25 26 30 34 25 28 20 24 50 76 87 98 110 122 147 185 201
230 235 238 239 237 238 239 242 247 249 257 269 281 292 302 312 325 336 343 352 359 6 16 23 25 27 29 31 35 40 41 38 33 37 56 71 75 81 89 113 131 146 158
238 240 240 239 240 239 240 240 243 248 250 256 264 273 285 296 308 317 324 337 347 353 0 15 18 21 25 33 39 48 53 53 52 49 59 71 79 84 92 98 114 119 133
243 242 242 242 241 241 242 244 247 249 252 256 260 265 272 280 286 292 302 319 330 338 346 360 357 4 15 29 39 46 56 62 62 67 69 71 79 82 87 91 106 134 153
249 246 244 244 243 242 242 242 243 244 246 250 254 257 261 267 273 281 290 300 310 317 322 328 334 344 355 9 24 37 39 53 69 71 72 80 84 84 70 66 78 97 125
255 253 251 248 247 245 243 242 243 244 244 246 250 255 259 265 270 276 282 287 291 295 298 303 307 316 328 340 354 8 22 30 39 61 68 74 79 73 78 80 85 96 112
255 254 254 252 250 248 245 244 244 244 246 247 249 253 255 259 263 267 272 279 285 286 287 289 290 292 297 305 315 327 336 345 3 34 46 58 62 85 90 95 107 111 120
256 254 256 257 254 252 248 245 245 244 244 245 244 246 250 254 257 261 267 276 283 286 288 287 285 283 282 279 278 279 284 288 290 285 266 250 237 220 200 192 191 192 194
260 258 255 256 256 254 251 245 242 243 243 243 243 245 246 247 252 257 260 267 279 292 298 298 295 289 284 279 274 272 270 270 270 271 269 267 268 264 255 249 233 223 223
267 261 256 256 256 256 255 252 248 244 244 245 247 248 247 250 252 251 255 261 269 279 288 293 295 296 297 294 287 281 276 272 269 265 262 260 257 252 252 247 244 241 237
271 263 254 255 257 257 258 260 258 252 248 249 250 250 247 247 249 249 254 259 266 271 276 279 283 292 296 298 300 298 290 284 281 277 274 272 269 266 265 261 258 254 251
279 268 262 258 258 260 259 256 254 249 245 245 249 250 247 248 251 251 254 255 257 264 266 269 276 283 283 285 286 287 291 294 292 290 285 280 275 270 265 261 259 257 255
27 29 22 349 312 295 284 276 262 249 243 241 243 244 244 244 246 246 245 248 256 264 270 269 272 277 280 280 280 280 282 283 283 282 281 278 276 275 273 270 266 264 260
54 59 63 56 38 26 277 259 243 240 236 233 233 235 236 237 238 243 248 252 255 258 263 266 269 273 278 280 280 279 280 282 282 280 277 274 272 271 270 268 265 261 257
67 64 62 58 54 48 50 65 118 175 197 211 224 231 238 244 248 252 256 259 258 257 258 261 267 273 275 276 277 279 281 282 282 280 278 273 270 267 264 262 260 258 254